sat.trackr.live / text

‹ back to catalog

STARLINK-4643

NORAD 54824 · 2022-177E

PAYLOAD ACTIVE UNKNOWN

§ Identity

Operator
Country
US
Launch date
2022-12-28
Launch site
AFETR
Launch vehicle
Mass (kg)
RCS (m²)

Purposes: comms

External: N2YO · Heavens-Above · Gunter

§ Orbital elements

Epoch: 2026-09-20T22:13:46.923456Z

Period
94.27 min
Inclination
43.0028°
Eccentricity
0.0001522
Mean motion
15.27579535 rev/d
Perigee alt
482.0 km
Apogee alt
484.1 km
Semi-major
6,861.2 km
B*
4.6701e-5
RAAN
113.3507°
Arg perigee
269.9351°
Mean anomaly
90.1326°
Rev number
20,678

§ Raw data

STARLINK-46431 54824U 22177E   26263.92623754  .00001023  00000+0  46701-4 0  99962 54824  43.0028 113.3507 0001522 269.9351  90.1326 15.27579535206780

JSON: /api/v1/satellites/54824 · /tle

For live sub-satellite position, see the globe view (requires WebGL).

§ Visibility from observer

Set your observer location to see the next 7 days of passes ≥ 10°. The values pass through the URL so the page stays shareable.

No JS? Fill the form by hand. The geolocation button needs JavaScript.